Location: Unspecified
(41.1637°N, 24.2901°E)
Time: 05:14:29
(UTC+01:00)

ISS - Pass Details

Date: 11 February 2026
Orbit: 413 x 428 km, 51.6° (Epoch: 18 February)

Event Time Altitude Azimuth Distance (km) Brightness Sun altitude
Rises 05:28:47 0° 208° (SSW) 2,341 -0.2 -10.7°
Reaches altitude 10° 05:31:02 10° 196° (SSW) 1,480 -1.0 -10.3°
Maximum altitude 05:33:56 28° 135° (SE) 811 -1.6 -9.8°
Drops below altitude 10° 05:36:50 10° 75° (ENE) 1,484 0.2 -9.2°
Sets 05:39:06 0° 63° (ENE) 2,349 1.0 -8.8°
